Scottsbluff, NE

2:32 PM MST on November 14, 2019 (GMT -0700)
Heilig

Weather History for KBFF - September, 2019

Change the Weather History Date:

Thursday, September 19, 2019

  Actual Average Record
Temperature  
Mean Temperature 68 °F -  
Max Temperature 86 °F 74 °F 95 °F (1984)
Min Temperature 51 °F 44 °F 29 °F (1971)
Cooling Degree Days 4    
Growing Degree Days 18 (Base 50)    
Moisture  
Dew Point 55 °F    
Average Humidity 64    
Maximum Humidity 92    
Minimum Humidity 36    
Precipitation  
Precipitation 0.00 in - - ()
Sea Level Pressure  
Sea Level Pressure 29.81 in    
Wind  
Wind Speed 9 mph (ESE)    
Max Wind Speed 24 mph    
Max Gust Speed 40 mph    
Visibility 10 miles    
Events      
Averages and records for this station are not official NWS values.
T = Trace of Precipitation, MM = Missing Value Source: NWS Daily Summary

Daily Weather History Graph

Daily Weather History Graph

Search for Another Location

Airport or City:

Astronomy

Sep. 19, 2019 Rise Set
Actual Time 6:38 AM MDT 6:57 PM MDT
Civil Twilight 6:10 AM MDT 7:24 PM MDT
Nautical Twilight 5:37 AM MDT 7:57 PM MDT
Astronomical Twilight 5:04 AM MDT 8:31 PM MDT
Moon 10:03 PM MDT (9/19) 11:48 AM MDT (9/19)
Length of Visible Light 13h 14m
Length of Day
12h 18m
Waning Gibbous, 74% of the Moon is Illuminated
Sep 19
Waning Gibbous
Sep 21
Last Quarter
Sep 28
New
Oct 5
First Quarter
Oct 13
Full

Hourly Weather History & Observations

Time (MDT) Temp. Heat Index Dew Point Humidity Pressure Visibility Wind Dir Wind Speed Gust Speed Precip Events Conditions
12:53 AM 55.0 °F - 48.9 °F 80% 29.91 in 10.0 mi East 6.9 mph - N/A   Clear
1:53 AM 55.0 °F - 48.9 °F 80% 29.88 in 10.0 mi ENE 6.9 mph - N/A   Clear
2:53 AM 54.0 °F - 48.0 °F 80% 29.88 in 10.0 mi East 6.9 mph - N/A   Clear
3:53 AM 54.0 °F - 48.0 °F 80% 29.88 in 10.0 mi ENE 3.5 mph - N/A   Clear
4:53 AM 52.0 °F - 48.0 °F 86% 29.88 in 10.0 mi North - - N/A   Clear
5:53 AM 52.0 °F - 48.9 °F 89% 29.88 in 10.0 mi East 3.5 mph - N/A   Clear
6:53 AM 51.1 °F - 48.9 °F 92% 29.90 in 10.0 mi Calm Calm - N/A   Clear
7:53 AM 55.9 °F - 51.1 °F 84% 29.90 in 10.0 mi SSE 3.5 mph - N/A   Clear
8:53 AM 62.1 °F - 53.1 °F 72% 29.90 in 10.0 mi SE 6.9 mph - N/A   Clear
9:53 AM 69.1 °F - 54.0 °F 58% 29.88 in 10.0 mi SE 9.2 mph - N/A   Clear
10:53 AM 73.0 °F - 55.0 °F 53% 29.87 in 10.0 mi ESE 11.5 mph - N/A   Clear
11:53 AM 78.1 °F - 57.9 °F 50% 29.83 in 10.0 mi ESE 11.5 mph 18.4 mph N/A   Clear
12:53 PM 82.9 °F 83.2 °F 60.1 °F 46% 29.80 in 10.0 mi SE 13.8 mph - N/A   Clear
1:53 PM 84.9 °F 84.8 °F 60.1 °F 43% 29.77 in 10.0 mi ESE 15.0 mph 21.9 mph N/A   Clear
2:53 PM 84.9 °F 84.8 °F 60.1 °F 43% 29.75 in 10.0 mi ESE 17.3 mph 24.2 mph N/A   Clear
3:53 PM 84.9 °F 84.8 °F 60.1 °F 43% 29.73 in 10.0 mi ESE 17.3 mph - N/A   Clear
4:53 PM 84.0 °F 84.4 °F 61.0 °F 46% 29.72 in 10.0 mi ESE 15.0 mph - N/A   Clear
5:53 PM 82.9 °F 83.2 °F 60.1 °F 46% 29.71 in 10.0 mi East 9.2 mph - N/A   Clear
6:53 PM 75.0 °F - 57.9 °F 55% 29.71 in 7.0 mi ESE 8.1 mph - N/A   Clear
7:53 PM 69.1 °F - 57.9 °F 68% 29.72 in 10.0 mi East 6.9 mph - N/A   Clear
8:53 PM 66.9 °F - 57.9 °F 73% 29.71 in 10.0 mi East 6.9 mph - N/A   Clear
9:53 PM 71.1 °F - 60.1 °F 68% 29.74 in 9.0 mi ESE 24.2 mph 40.3 mph N/A   Clear
10:53 PM 70.0 °F - 59.0 °F 68% 29.75 in 10.0 mi SE 21.9 mph 29.9 mph N/A   Clear
11:53 PM 69.1 °F - 57.9 °F 68% 29.75 in 10.0 mi SE 21.9 mph 27.6 mph 0.00 in   Partly Cloudy